SCP
0 0 0 0 0 0 0 0 0 0 0 0 0 0 0 0 0 0 0 0 0 0 0 0 0 1 1 1 0 0 0 0 0 0 0 0 0 0 0 0 0 0 0 0
0 0 0 0 0 0 0 0 0 0 0 0 0 0 0 0 0 0 0 0 0 0 0 0 0 0 1 1 1 0 0 0 0 0 0 0 0 0 0 0 0 0 0 0
0 0 0 0 0 0 0 0 0 0 0 0 0 0 0 0 0 0 0 0 0 0 0 0 0 0 0 1 1 1 0 0 0 0 0 0 0 0 0 0 0 0 0 0
0 0 0 0 0 0 0 0 0 0 0 0 0 0 0 0 0 0 0 0 0 0 0 0 0 0 0 1 1 1 0 0 0 0 0 0 0 0 0 0 0 0 0 0
0 0 0 0 0 0 0 0 0 0 0 0 0 0 0 0 0 0 0 0 0 0 0 0 0 0 0 0 1 1 1 1 0 0 0 0 0 0 0 0 0 0 0 0
0 0 0 0 0 0 0 0 0 0 0 0 0 0 0 0 0 0 0 0 0 0 0 0 0 0 0 0 1 1 1 1 1 0 0 0 0 0 0 0 0 0 0 0
0 0 0 0 0 0 0 0 0 0 0 0 0 0 0 0 0 0 0 0 0 0 0 0 0 0 0 0 0 0 0 0 0 0 0 0 0 0 0 0 0 0 0 0
0 0 0 0 0 0 0 0 0 0 0 0 0 0 0 0 0 0 0 0 0 0 0 0 0 0 0 0 0 0 0 0 0 0 0 0 0 0 0 0 0 0 0 0
0 0 0 0 0 0 0 0 0 0 0 0 0 0 0 0 0 0 0 0 0 0 0 0 0 0 0 0 0 0 0 0 0 0 0 0 0 0 0 0 0 0 0 0
0 0 0 0 0 0 0 0 0 0 0 0 0 0 0 0 0 0 0 0 0 0 0 0 0 0 0 0 0 0 0 0 0 0 0 0 0 0 0 0 0 0 0 0
0 0 0 0 0 0 0 0 0 0 0 0 0 0 0 0 0 0 0 0 0 0 0 0 0 0 0 0 0 0 0 0 0 0 0 0 0 0 0 0 0 0 0 0
0 0 0 0 0 0 0 0 0 0 0 0 0 0 0 0 0 0 0 0 0 0 0 0 0 0 0 0 0 0 0 0 0 0 0 0 0 0 0 0 0 0 0 0
0 0 0 0 0 0 0 0 0 0 0 0 0 0 0 0 0 0 0 0 0 0 0 0 0 0 0 0 0 0 0 0 0 0 0 0 0 0 0 0 0 0 0 0
0 0 0 0 0 0 0 0 0 0 0 0 0 0 0 0 0 0 0 0 0 0 0 0 0 0 0 0 0 0 0 0 0 0 0 0 0 0 0 0 0 0 0 0
0 0 0 0 0 0 0 0 0 0 0 0 0 0 0 0 0 0 0 0 0 0 0 0 0 0 0 0 0 0 0 0 0 0 0 0 0 0 0 0 0 0 0 0
0 0 0 0 0 0 0 0 0 0 0 0 0 0 0 0 0 0 0 0 0 0 0 0 0 0 0 0 0 0 0 0 0 0 0 0 0 0 0 0 0 0 0 0
0 0 0 0 0 0 0 0 0 0 0 0 0 0 0 0 0 0 0 0 0 0 0 0 0 0 0 0 0 0 0 0 0 0 0 0 0 0 0 0 0 0 0 0
0 0 0 0 0 0 0 0 0 0 0 0 0 0 0 0 0 0 0 0 0 0 0 0 0 0 0 0 0 0 0 0 0 0 0 0 0 0 0 0 0 0 0 0
0 0 0 0 0 0 0 0 0 0 0 0 0 0 0 0 0 0 0 0 0 0 0 0 0 0 0 0 0 0 0 0 0 0 0 0 0 0 0 0 0 0 0 0
0 0 0 0 0 0 0 0 0 0 0 0 0 0 0 0 0 0 0 0 0 0 0 0 0 0 0 0 0 0 0 0 0 0 0 0 0 0 0 0 0 0 0 0
0 0 0 0 0 0 0 0 0 0 0 0 0 0 0 0 0 0 0 0 0 0 0 0 0 0 0 0 0 0 0 0 0 0 0 0 0 0 0 0 0 0 0 0
0 0 0 0 0 0 0 0 0 0 0 0 0 0 0 0 0 0 0 0 0 0 0 0 0 0 0 0 0 0 0 0 0 0 0 0 0 0 0 0 0 0 0 0
0 0 0 0 0 0 0 0 0 0 0 0 0 0 0 0 0 0 0 0 0 0 0 0 0 0 0 0 0 0 0 0 0 0 0 0 0 0 0 0 0 0 0 0
0 0 0 0 0 0 0 0 0 0 0 0 0 0 0 0 0 0 0 0 0 0 0 0 0 0 0 0 0 0 0 0 0 0 0 0 0 0 0 0 0 0 0 0
0 0 0 0 0 0 0 0 0 0 0 0 0 0 0 0 0 0 0 0 0 0 0 0 0 0 0 0 0 0 0 0 0 0 0 0 0 0 0 0 0 0 0 0
0 0 0 0 0 0 0 0 0 0 0 0 0 0 0 0 0 0 0 0 0 0 0 0 0 0 0 0 0 0 0 0 0 0 0 0 0 0 0 0 0 0 0 0
0 0 0 0 0 0 0 0 0 0 0 0 0 0 0 0 0 0 0 0 0 0 0 0 0 0 0 0 0 0 0 0 0 0 0 0 0 0 0 0 0 0 0 0
Wind_Speed
6 7 6 8 11 11 7 5 5 6 5 5 7 7 8 10 13 16 16 16 15 14 11 9 7 6 5 6 6 7 7 6 6 5 4 4 3 2 1 1 1 1 3 4
3 6 7 6 9 5 7 7 8 8 6 6 6 6 9 11 13 14 14 15 15 15 14 13 11 9 7 6 7 7 8 8 7 6 5 5 4 3 2 1 0 1 3 4
4 6 5 4 7 7 8 9 6 5 4 7 9 11 7 8 11 13 13 14 15 14 13 13 13 12 10 9 6 7 9 8 8 7 7 6 6 5 4 3 2 2 2 3
2 3 1 2 6 11 11 10 9 6 5 7 9 9 3 5 9 11 12 13 12 12 13 13 13 14 13 10 6 6 7 8 8 8 8 7 6 6 5 3 3 3 4 4
3 3 4 4 4 4 1 4 6 5 7 9 10 8 3 4 6 7 8 9 9 9 9 10 12 14 14 12 9 6 6 7 9 9 9 9 8 8 6 5 4 4 5 5
3 3 5 2 10 12 2 3 4 7 8 10 10 8 6 9 11 12 11 9 9 9 9 10 11 11 12 12 10 9 9 8 8 9 11 11 11 8 6 5 6 6 5 5
1 3 1 6 12 9 2 4 7 7 8 9 6 7 11 13 13 12 12 11 10 10 8 9 10 9 10 10 10 11 12 10 8 8 11 11 10 8 8 7 7 6 6 5
3 2 2 7 6 4 3 5 7 9 10 11 12 14 15 14 13 13 13 12 11 9 9 8 8 8 9 10 10 10 11 10 9 8 9 10 10 10 10 10 9 7 6 5
2 0 2 2 2 4 4 7 8 9 12 13 15 16 17 16 15 14 13 13 10 10 10 9 8 7 9 10 10 10 10 10 9 8 8 9 11 12 10 10 9 8 7 7
3 1 3 4 4 4 6 8 11 13 15 15 17 18 18 16 14 13 12 12 10 10 10 10 9 9 9 10 9 9 10 10 9 8 8 9 10 10 11 11 10 9 9 8
2 3 6 5 6 8 10 12 15 16 16 17 17 18 17 15 14 13 12 10 9 9 11 12 10 10 10 9 9 9 9 9 8 8 8 9 10 11 13 12 13 12 10 10
2 5 5 9 10 12 14 16 17 17 17 16 15 16 16 14 12 11 11 10 10 10 11 12 11 11 10 9 8 9 8 8 6 6 6 7 8 8 11 11 16 17 14 12
6 7 8 11 13 15 15 17 17 15 15 15 12 11 12 11 10 10 11 11 12 12 12 12 11 11 10 9 9 9 8 7 5 6 6 6 8 9 8 5 11 15 17 17
8 8 9 11 13 14 14 14 13 12 12 12 11 11 11 11 11 12 12 12 12 13 13 12 12 12 11 9 9 9 8 8 7 6 6 6 8 9 10 10 9 6 9 15
9 8 10 12 11 11 11 11 12 12 12 11 10 11 13 14 14 14 13 13 13 13 14 13 13 12 11 9 9 9 7 5 5 5 6 6 7 8 9 11 10 8 5 5
9 10 10 11 12 12 12 13 13 13 13 13 12 13 13 14 15 16 15 14 13 15 15 14 14 13 11 10 10 8 6 10 8 5 6 6 7 8 9 10 9 9 9 8
8 9 10 12 12 13 13 13 13 13 13 14 14 14 14 15 16 16 15 14 14 15 15 15 15 13 11 10 9 6 6 6 10 7 6 6 7 9 10 10 10 10 9 11
9 10 11 12 14 15 16 14 14 15 14 15 15 15 15 16 17 17 17 16 15 15 15 14 13 12 11 9 7 6 5 5 5 5 5 5 7 8 10 10 11 11 8 9
11 11 12 14 14 14 14 15 15 14 14 14 14 15 15 16 17 18 17 16 16 16 15 12 15 13 10 10 10 5 5 6 5 5 5 5 7 8 9 10 10 10 10 11
11 13 14 15 14 14 14 15 14 13 13 14 14 15 16 17 18 18 17 15 13 12 12 13 12 10 9 9 10 5 5 6 6 5 4 5 7 8 9 10 11 11 11 11
13 14 15 15 14 14 14 14 13 14 14 14 14 16 18 19 18 17 15 14 13 12 12 13 10 8 7 6 8 5 5 6 5 5 4 5 6 9 10 10 11 11 11 10
12 12 14 14 14 14 13 12 12 14 15 15 16 18 19 19 18 16 15 13 12 14 11 8 7 8 8 7 4 5 5 5 5 4 4 4 6 8 10 10 10 10 10 10
11 11 12 13 13 14 14 12 13 13 15 17 19 20 19 18 15 14 14 11 10 12 10 8 9 11 10 5 4 4 5 5 4 3 3 4 6 7 9 11 10 10 10 10
10 11 12 12 12 12 13 14 14 14 16 18 17 19 19 16 13 11 11 14 15 14 9 8 11 11 8 4 3 4 4 4 3 2 3 4 5 6 7 9 9 9 10 11
10 10 10 12 12 11 12 14 16 16 17 15 18 19 16 12 14 14 12 13 13 11 7 7 9 8 5 3 3 3 3 2 1 1 1 3 4 5 6 7 8 8 9 9
9 9 9 10 10 10 11 12 13 14 15 16 16 16 15 13 14 12 10 10 10 8 5 4 4 4 3 3 3 3 2 2 1 0 1 2 3 4 5 6 8 7 8 8
9 8 8 9 9 10 11 12 14 15 15 16 18 17 16 14 13 12 11 8 6 5 4 3 3 2 3 3 3 2 1 1 1 0 1 2 3 3 4 6 5 5 6 7
Wind_Direction
225 246 265 286 297 298 296 255 175 131 94 11 355 9 20 23 21 20 13 8 4 356 346 331 319 301 279 253 228 203 189 191 200 201 195 193 196 215 249 294 326 7 47 56
288 276 288 308 331 360 32 34 89 97 64 348 344 15 25 24 20 14 4 358 354 352 349 342 327 313 294 272 245 214 200 201 197 189 187 190 193 196 204 230 343 76 74 67
271 296 343 9 3 73 66 33 58 64 16 344 355 358 6 16 15 4 353 348 346 343 340 334 328 317 304 279 262 224 211 203 193 188 189 193 191 187 190 191 166 129 118 104
214 354 296 152 78 102 96 62 51 52 9 353 337 313 307 30 8 345 338 336 333 332 332 331 328 327 319 308 281 246 223 209 196 190 192 189 184 187 188 175 170 159 147 133
151 203 239 137 49 356 231 85 25 10 347 336 322 306 260 7 345 320 313 311 310 312 314 320 325 330 327 321 302 273 247 227 207 194 190 187 189 188 183 171 170 167 157 146
158 200 238 309 335 322 124 123 1 348 333 330 340 337 304 323 322 314 310 306 304 307 312 319 321 327 329 326 323 308 286 260 228 201 191 191 192 184 175 170 171 165 161 159
248 245 87 330 320 336 20 303 312 316 313 315 308 274 283 298 300 297 296 294 294 297 301 303 308 317 321 323 320 312 312 296 260 218 198 192 188 178 170 168 164 166 164 165
357 319 329 342 10 42 268 276 292 302 302 298 289 286 289 290 289 289 290 287 284 284 285 287 292 301 307 308 306 308 310 305 284 245 210 193 182 180 173 169 167 168 164 162
86 151 218 269 215 235 257 284 288 286 286 285 285 285 286 285 284 284 282 282 279 277 282 283 283 283 290 296 298 301 304 301 290 268 226 192 181 180 176 174 174 175 173 173
97 110 270 273 263 266 270 271 276 277 279 279 279 281 284 284 283 281 279 279 278 278 280 282 281 278 273 284 290 290 291 295 293 271 236 201 185 180 180 181 180 179 179 178
71 317 315 299 281 277 283 284 284 284 282 281 281 284 286 287 287 285 285 284 279 275 277 280 280 276 274 278 287 285 285 288 291 274 239 206 191 187 185 189 185 181 183 179
272 263 259 273 278 284 290 291 292 293 293 290 286 287 291 292 292 291 291 289 287 281 278 280 280 277 277 273 275 278 276 281 284 284 249 210 190 186 194 185 183 183 180 176
237 251 252 268 280 285 287 289 293 295 296 299 298 296 297 296 294 293 292 292 289 286 284 282 279 276 273 270 270 269 264 269 279 286 262 214 188 179 174 175 178 180 179 178
261 273 282 280 284 290 292 293 296 298 299 299 299 300 299 296 295 295 293 290 290 291 289 286 281 277 275 269 267 265 261 265 269 279 267 221 193 182 175 172 171 176 189 187
288 283 277 285 291 295 296 301 305 305 302 299 294 295 297 297 296 293 291 290 292 291 291 288 283 281 279 269 265 263 258 259 257 272 270 227 193 179 174 174 173 162 143 167
294 297 296 298 300 302 303 303 302 298 296 295 295 295 294 294 294 294 294 293 295 294 293 289 283 280 279 272 266 260 252 259 264 265 271 228 187 177 172 170 168 166 169 161
309 306 303 304 304 302 299 297 295 294 295 296 296 295 296 298 298 297 296 292 289 289 287 284 281 279 276 269 262 257 250 258 265 264 259 225 188 179 173 170 170 171 173 170
292 289 291 296 300 303 303 300 298 299 297 297 299 300 302 304 302 300 299 297 293 289 285 281 278 277 274 266 258 253 250 251 247 252 252 218 190 180 171 170 170 168 160 161
293 290 292 295 296 297 299 300 302 301 300 302 303 303 303 302 302 301 300 298 295 293 291 285 282 280 275 264 263 247 243 252 254 254 244 211 191 179 171 170 169 167 162 161
294 295 298 301 301 301 302 305 306 306 306 304 304 305 306 306 305 303 300 295 286 281 283 285 285 279 269 260 259 243 238 246 251 252 238 208 187 177 173 171 169 167 165 168
301 304 307 310 309 308 308 309 310 310 309 307 307 307 307 306 305 304 300 297 291 286 284 283 280 274 264 251 249 238 239 243 245 240 229 203 179 172 171 169 169 169 171 172
306 309 312 313 314 314 314 313 311 311 311 311 310 310 310 309 307 304 294 288 288 287 287 281 275 269 265 253 238 238 243 243 244 237 221 191 175 170 169 169 169 171 172 173
309 310 312 314 315 314 315 316 315 315 314 314 313 311 310 307 305 304 303 298 292 288 286 277 271 272 269 252 233 237 247 244 239 235 212 181 173 168 167 167 168 169 171 173
313 315 314 314 317 318 319 320 320 317 314 312 310 310 309 309 305 298 294 296 293 289 285 275 270 267 255 236 226 234 243 240 234 249 198 167 159 158 160 162 164 168 171 173
315 316 317 322 325 322 320 321 321 319 317 315 312 312 310 306 305 305 303 301 299 293 285 274 268 256 237 220 221 231 239 228 225 242 154 146 147 148 154 158 160 163 169 175
317 319 319 319 319 319 321 322 321 319 318 316 316 315 314 313 309 307 306 304 302 299 291 279 268 243 216 212 222 232 221 203 217 166 121 127 135 141 147 155 159 162 167 175
321 322 323 325 323 323 322 322 319 318 317 316 317 317 317 318 319 320 318 314 312 306 294 281 266 230 206 205 215 220 205 187 169 119 134 136 139 142 145 149 157 160 164 170